www.pogodaiklimat.ru
ПОГОДА на Агалега
Время
(UTC), дата
15 14.04
18 14.04
00 15.04
03 15.04
06 15.04
09 15.04
12 15.04
15 15.04
18 15.04
00 16.04
03 16.04
06 16.04
09 16.04
12 16.04
15 16.04
18 16.04
00 17.04
03 17.04
06 17.04
09 17.04
12 17.04
15 17.04
18 17.04
00 18.04
03 18.04
06 18.04
09 18.04
12 18.04
15 18.04
18 18.04
00 19.04
03 19.04
06 19.04
09 19.04
12 19.04
15 19.04
18 19.04
00 20.04
03 20.04
06 20.04
09 20.04
12 20.04
15 20.04
18 20.04
00 21.04
03 21.04
06 21.04
09 21.04
12 21.04
Ветер
(напр.,м/с)
Видим. Явления Облачность Т
(С)
Тd
(С)
f
(%)
Тe
(С)
Тes
(С)
Комфортность P
(гПа)
Po
(гПа)
Тmin
(С)
Tmax
(С)
R
(мм)
R24
(мм)
S
(см)
штиль 0 20 км 6/4 540 м
[Cu Sc Ci sp]
+27.1 +24.7 87 +39 +39 очень
душно
1011.1 1010.8
штиль 0 20 км 3/3 540 м
[Cu med, cong]
+25.8 +24.9 95 +36 +36 очень
душно
1012.6 1012.3 +32.4
штиль 0 15 км в посл. час ливневой дождь 8/6 480 м
[Cu Sc Ci sp]
+26.3 +25.3 94 +37 +37 очень
душно
1010.6 1010.3 2
В 3 25 км 9/5 500 м
[Cu Sc Ci sp]
+26.8 +25.1 90 +39 +39 очень
душно
1011.3 1011.0
В 2 18 км осадки на расстоянии 8/6 500 м
[Cu Sc Ci sp]
+30.3 +25.9 77 +44 +48 опасность
перегрева
1012.8 1012.5 +25.4 2 2.0
В 3 18 км осадки на расстоянии 9/4 500 м
[Cu Sc Ac lent Cs]
+30.8 +25.4 73 +45 +50 опасность
перегрева
1010.6 1010.3
В 2 18 км осадки на расстоянии 9/5 500 м
[Cu Sc Ac lent Cs]
+30.8 +25.2 72 +44 +45 опасность
перегрева
1009.5 1009.2
В 3 20 км 8/4 500 м
[Cu Sc Ci sp]
+27.8 +24.5 82 +39 +39 очень
душно
1010.4 1010.1
В 3 18 км осадки на расстоянии 6/5 500 м
[Cu Sc Ci sp]
+28.1 +25.1 84 +40 +40 очень
душно
1012.3 1012.0 +31.9
В 2 15 км осадки на расстоянии {ливн. дождь} 9/6 500 м
[Cu Sc Ac lent Ci sp]
+25.7 +24.3 92 +35 +35 очень
душно
1010.8 1010.5 3
В 2 15 км осадки на расстоянии {ливн. дождь} 9/8 480 м
[Cu Sc Ac lent Ci sp]
+25.7 +23.8 89 +35 +35 очень
душно
1011.2 1010.9 0.2
В 2 25 км {ливн. дождь} 9/6 500 м
[Cu Sc Ac lent Ci sp]
+30.4 +26.0 77 +44 +47 опасность
перегрева
1012.3 1012.0 +25.0 3 3.0
С 3 18 км осадки на расстоянии 9/8 500 м
[Cu Sc Ac lent Ci sp]
+31.4 +25.4 71 +46 +48 опасность
перегрева
1010.7 1010.4
В 1 25 км 9/8 540 м
[Cu Sc Ac lent]
+30.6 +25.7 75 +44 +45 опасность
перегрева
1009.7 1009.4
В 3 20 км 8/8 540 м
[Cu Sc Ac lent]
+28.1 +24.6 81 +40 +40 очень
душно
1010.9 1010.6
В 1 20 км 3/3 540 м
[Cu Sc]
+28.3 +24.0 78 +38 +38 очень
душно
1012.2 1011.9 +32.2
В 2 20 км 1/1 540 м
[Cu med, cong]
+27.5 +24.6 84 +38 +38 очень
душно
1010.4 1010.1
В 3 25 км 4/4 540 м
[Cu Sc]
+27.6 +24.9 85 +39 +40 очень
душно
1012.0 1011.7
В 2 25 км 6/6 500 м
[Cu Sc Ac lent]
+32.0 +25.9 70 +46 +50 опасность
перегрева
1013.5 1013.2 +27.0
В 3 25 км 4/4 540 м
[Cu med, cong]
+31.8 +25.4 69 +46 +55 опасность
перегрева
1012.0 1011.7
В 2 25 км 3/3 540 м
[Cu Sc]
+31.5 +24.8 68 +44 +47 опасность
перегрева
1011.4 1011.1
В 3 20 км 3/3 540 м
[Cu med, cong]
+28.0 +24.1 79 +39 +39 очень
душно
1012.6 1012.3
В 2 20 км 1/1 540 м
[Cu med, cong]
+28.0 +24.1 79 +38 +38 очень
душно
1014.2 1013.9 +33.0
ЮВ 1 20 км 1/1 540 м
[Cu med, cong]
+27.3 +24.3 84 +37 +37 очень
душно
1012.5 1012.2
ЮВ 2 25 км 1/1 540 м
[Cu Sc Ci sp]
+26.4 +23.5 84 +36 +36 очень
душно
1013.4 1013.1
В 1 25 км 1/1 540 м
[Cu med, cong Ci sp]
+30.9 +24.2 68 +42 +55 опасность
перегрева
1014.8 1014.5 +25.8
ЮВ 4 25 км 3/3 540 м
[Cu med, cong Ci sp]
+32.2 +24.3 63 +44 +53 опасность
перегрева
1013.6 1013.3
ЮВ 2 25 км 3/3 540 м
[Cu med, cong Ci sp]
+31.1 +24.4 68 +43 +45 опасность
перегрева
1011.9 1011.6
Ю 2 20 км 3/1 540 м
[Cu med, cong Ci sp]
+27.1 +24.7 87 +39 +39 очень
душно
1012.9 1012.6
ЮВ 2 20 км 3/3 540 м
[Cu med, cong]
+27.9 +24.8 83 +39 +39 очень
душно
1013.8 1013.5 +32.8
Ю 1 20 км 1/1 540 м
[Cu med, cong]
+26.3 +23.7 86 +35 +35 очень
душно
1011.3 1011.0
штиль 0 25 км 4/3 540 м
[Cu Sc Ci sp]
+25.1 +23.2 89 +34 +34 очень
душно
1011.9 1011.6
штиль 0 18 км осадки на расстоянии 9/6 500 м
[Cu Sc Ac lent Ci sp]
+29.1 +25.9 83 +43 +47 опасность
перегрева
1012.9 1012.6 +25.0
штиль 0 12 км слаб. дождь {гроза} 10/9 420 м
[Cb cap Ac As]
+25.5 +25.1 98 +37 +37 очень
душно
1010.3 1010.0 19
штиль 0 12 км в посл. час ливневой дождь {гроза} 10/9 420 м
[Cb cap Ac As]
+25.5 +24.9 96 +35 +35 очень
душно
1008.7 1008.4 25
штиль 0 10 км дождь {ливн. дождь} 10/9 420 м
[Cb cap Ac As]
+24.3 +23.7 96 +33 +33 очень
душно
1010.2 1009.9 6
штиль 0 10 км слаб. дождь 10/9 420 м
[Cb cap Ac As]
+24.5 +23.9 96 +33 +33 очень
душно
1012.0 1011.7 +29.8 34
СВ 1 12 км осадки на расстоянии 10/9 420 м
[Cb cap Ac As]
+26.7 +25.4 93 +38 +38 очень
душно
1009.3 1009.0 2
В 2 12 км осадки на расстоянии 9/6 480 м
[Cu Sc Ac As Cs]
+27.0 +25.5 92 +40 +40 очень
душно
1011.5 1011.2
штиль 0 15 км осадки на расстоянии 9/6 420 м
[Cb cap Ac lent Cs]
+29.4 +26.4 84 +44 +48 опасность
перегрева
1013.2 1012.9 +24.1 36 36.0
ЮВ 3 25 км 8/5 500 м
[Cu Sc Ac lent Cs]
+30.9 +26.2 76 +47 +52 опасность
перегрева
1010.6 1010.3
ЮВ 2 25 км 8/5 540 м
[Cu Sc Ac lent Ci sp]
+30.9 +26.2 76 +46 +47 опасность
перегрева
1009.4 1009.1
штиль 0 20 км 4/3 540 м
[Cu Sc Ci sp]
+27.1 +25.0 88 +39 +39 очень
душно
1011.5 1011.2
В 1 20 км 3/3 540 м
[Cu med, cong]
+27.0 +24.7 87 +37 +37 очень
душно
1012.4 1012.1 +31.8
штиль 0 20 км 1/1 540 м
[Cu med, cong]
+24.5 +24.1 98 +33 +33 очень
душно
1010.1 1009.8
штиль 0 25 км 4/3 540 м
[Cu Sc Ac lent Ci sp]
+25.2 +24.8 98 +36 +36 очень
душно
1012.3 1012.0
В 2 18 км осадки на расстоянии 6/5 500 м
[Cu Sc Ci sp]
+30.3 +25.9 77 +44 +49 опасность
перегрева
1013.5 1013.2 +24.0
С 2 12 км слаб. ливневой дождь 9/8 480 м
[Cu Sc Ci sp]
+29.1 +25.9 83 +44 +47 опасность
перегрева
1012.0 1011.7 0.8
С 1 15 км осадки на расстоянии {ливн. дождь} 9/5 450 м
[Cb cap Ac lent Ci ing]
+30.3 +24.9 73 +43 +44 опасность
перегрева
1010.6 1010.3 0.9
Местоположение метеостанции Агалега (Маврикий): широта -10.43 долгота 56.75 высота над уровнем моря 3 м.
В архиве по умолчанию представлена погода на Агалега за последнюю неделю. Архивные данные за месяц целиком и за предыдущие месяцы, начиная с января 2011 года, Вы можете получить, выбрав интересующий диапазон дат из раскрывающегося списка и нажав кнопку "Найти!".
*Определитесь, кто Вы:
Внимание! Время в таблицах - всемирное. Для получения местного времени необходимо прибавить поправку, которая равна 4 ч.
Смотрите также архив погоды в соседних городах и на ближайших метеорологических станциях:
Партнеры нашего сайта:      
Пояснения к столбцам:
  • Ветер - указаны скорость ветра в м/с - средняя за 10 мин, порывы в срок и между сроками (в фигурных скобках) и направление, откуда дует ветер: С - северный,
  • СВ - северо-восточный, В - восточный, ЮВ - юго-восточный, Ю - южный, ЮЗ - юго-западный, З - западный, СЗ - северо-западный.
  • Видимость - горизонтальная дальность видимости в метрах или километрах. При видимости от 1 до 10 км при отсутствии осадков обычно наблюдается дымка, при ухудшении видимости до 1 км и менее - туман. В сухую погоду видимость может ухудшаться дымом, пылью или мглою.
  • Явления - указаны атмосферные явления, наблюдавшиеся в срок или в последний час перед сроком; фигурными скобками обозначены явления, наблюдавшиеся между сроками (за 1-3 часа до срока); квадратными скобками обозначены град или гололедные отложения с указанием их диаметра в мм.
  • Облачность - указаны через наклонную черту общая и нижняя облачность в баллах и высота нижней границы облаков в метрах; квадратными скобками обозначены формы облаков: Ci - перистые, Cs - перисто-слоистые, Cc - перисто-кучевые, Ac - высококучевые, As - высокослоистые, Sc - слоисто-кучевые, Ns - слоисто-дождевые, Cu - кучевые, Cb - кучево-дождевые. Подробнее классификацию облаков см. в Атласе облаков (PDF).
  • T - Температура воздуха - температура, измеренная на высоте 2 м над землей.
  • Td - Температура точки росы - температура, при понижении до которой содержащийся в воздухе водяной пар достигнет насыщения.
  • f - Относительная влажность воздуха - влажноcть воздуха, измеренная на высоте 2 м над землей.
  • Te - Эффективная температура - температура, которую ощущает одетый по сезону человек в тени. Характеристика душности погоды. При расчете учитывается влияние влажности воздуха и скорости ветра на теплоощущения человека.
  • Tes - Эффективная температура на солнце - температура, которую ощущает человек, с поправкой на солнечный нагрев. Характеристика знойности погоды. Зависит от высоты солнца над горизонтом, облачности и скорости ветра. Ночью, в пасмурную погоду, а также при ветре 12 м/с и более поправка равна нулю.
  • P - Атмосферное давление - приведенное к уровню моря атмосферное давление.
  • Po - Атмосферное давление - измеренное на уровне метеостанции атмосферное давление.
  • Tmin - Минимальная температура - минимум температуры воздуха на высоте 2 м над землей.
  • Tmax - Максимальная температура - максимум температуры воздуха на высоте 2 м над землей.
  • R - Количество осадков - Количество выпавших осадков за период времени, мм. При наведении курсора мыши на число - период времени, за который выпало указанное количество осадков.
  • R24 - Количество осадков - Количество выпавших осадков за 24 часа, мм.
  • S - Снежный покров - Высота снежного покрова, см. При наведении курсора мыши на число - состояние снежного покрова и степень покрытия местности в баллах.